Date String (YYYY-MM-DD hh:mm:ss) UTC,Instrument flags,Ambient pressure (hPa),Sample flow (lpm),Bypass flow (lpm),Sample temperature (°C),Ambient temperature (°C),ASC tube jacket temperature (°C),LED temperature (°C),Box temperature (°C),Sample RH (%),Span deviation,Mass concentration (μg/m³),Mass concentration (μg/m³),Mass concentration (μg/m³)
DateTimeUTC,F1_M11,P_M11,Q1_M11,Q2_M11,T1_M11,T2_M11,T3_M11,T4_M11,T5_M11,U1_M11,ZSPAN_M11,X0_M11,X2_M11,X1_M11
2022-10-25 01:00:00,,0821.0,5.00,0.00,24.8,23.1,00.0,33.7,26.6,08.1,0000.0,0004.32,0001.91,0001.67
2022-10-25 01:01:00,,0821.1,5.01,0.00,24.7,23.1,00.0,33.6,26.5,08.0,0000.0,0004.30,0001.90,0001.67
2022-10-25 01:02:00,,0821.2,4.99,0.00,24.7,23.1,00.0,33.6,26.5,08.0,0000.0,0004.31,0001.90,0001.68
2022-10-25 01:03:00,,0821.1,4.99,0.00,24.7,23.1,00.0,33.6,26.5,08.0,0000.0,0004.07,0001.91,0001.69
2022-10-25 01:04:00,,0821.2,5.01,0.00,24.7,23.1,00.0,33.6,26.5,08.0,0000.0,0003.92,0001.96,0001.69
2022-10-25 01:05:00,,0821.2,5.00,0.00,24.7,23.1,00.0,33.6,26.6,08.0,0000.0,0003.16,0001.94,0001.69
2022-10-25 01:06:00,,0821.2,5.00,0.00,24.7,23.1,00.0,33.6,26.5,08.0,0000.0,0003.91,0001.97,0001.70
2022-10-25 01:07:00,,0821.2,4.99,0.00,24.7,23.1,00.0,33.6,26.5,08.0,0000.0,0004.22,0002.00,0001.71
2022-10-25 01:08:00,,0821.2,5.00,0.00,24.7,23.1,00.0,33.6,26.6,08.1,0000.0,0004.25,0002.01,0001.71
2022-10-25 01:09:00,,0821.3,5.00,0.00,24.7,23.1,00.0,33.6,26.6,08.1,0000.0,0004.34,0002.04,0001.70
2022-10-25 01:10:00,,0821.4,5.00,0.00,24.7,23.1,00.0,33.6,26.6,08.1,0000.0,0004.37,0002.04,0001.70
2022-10-25 01:11:00,,0821.4,5.00,0.00,24.7,23.1,00.0,33.6,26.6,08.1,0000.0,0004.60,0002.09,0001.70
2022-10-25 01:12:00,,0821.4,5.00,0.00,24.7,23.1,00.0,33.6,26.6,08.0,0000.0,0004.78,0002.14,0001.71
2022-10-25 01:13:00,,0821.4,5.00,0.00,24.7,23.1,00.0,33.6,26.6,08.0,0000.0,0004.89,0002.18,0001.72
2022-10-25 01:14:00,,0821.4,5.00,0.00,24.7,23.2,00.0,33.6,26.6,08.0,0000.0,0004.93,0002.19,0001.72
2022-10-25 01:15:00,,0821.4,5.01,0.00,24.7,23.2,00.0,33.6,26.6,08.0,0000.0,0005.63,0002.15,0001.73
2022-10-25 01:16:00,,0821.4,5.01,0.00,24.7,23.2,00.0,33.6,26.6,08.0,0000.0,0006.03,0002.17,0001.73
2022-10-25 01:17:00,,0821.4,4.98,0.00,24.7,23.2,00.0,33.6,26.6,07.9,0000.0,0005.02,0002.16,0001.73
2022-10-25 01:18:00,,0821.4,5.00,0.00,24.7,23.2,00.0,33.6,26.6,07.8,0000.0,0004.59,0002.16,0001.73
2022-10-25 01:19:00,,0821.4,5.00,0.00,24.7,23.1,00.0,33.6,26.6,07.8,0000.0,0004.83,0002.19,0001.74
2022-10-25 01:20:00,,0821.4,5.00,0.00,24.7,23.1,00.0,33.6,26.5,07.9,0000.0,0005.16,0002.21,0001.76
2022-10-25 01:21:00,,0821.5,5.00,0.00,24.7,23.1,00.0,33.6,26.6,07.9,0000.0,0005.53,0002.29,0001.78
2022-10-25 01:22:00,,0821.4,5.00,0.00,24.7,23.1,00.0,33.6,26.5,07.9,0000.0,0005.61,0002.36,0001.81
2022-10-25 01:23:00,,0821.4,5.00,0.00,24.7,23.0,00.0,33.6,26.4,07.8,0000.0,0005.63,0002.39,0001.83
2022-10-25 01:24:00,,0821.4,5.00,0.00,24.7,23.0,00.0,33.6,26.4,07.8,0000.0,0005.55,0002.38,0001.85
2022-10-25 01:25:00,,0821.4,4.99,0.00,24.6,22.9,00.0,33.6,26.5,07.8,0000.0,0005.59,0002.41,0001.88
2022-10-25 01:26:00,,0821.4,5.00,0.00,24.6,22.9,00.0,33.6,26.4,07.8,0000.0,0005.31,0002.48,0001.90
2022-10-25 01:27:00,,0821.4,5.00,0.00,24.6,22.9,00.0,33.5,26.4,07.8,0000.0,0005.74,0002.53,0001.93
2022-10-25 01:28:00,,0821.4,5.00,0.00,24.6,22.8,00.0,33.5,26.4,07.8,0000.0,0005.80,0002.55,0001.98
2022-10-25 01:29:00,,0821.4,5.00,0.00,24.6,22.8,00.0,33.5,26.4,07.7,0000.0,0005.72,0002.55,0002.01
2022-10-25 01:30:00,,0821.4,5.00,0.00,24.6,22.8,00.0,33.5,26.4,07.7,0000.0,0005.54,0002.56,0002.03
2022-10-25 01:31:00,,0821.6,5.01,0.00,24.5,22.7,00.0,33.5,26.3,07.7,0000.0,0005.44,0002.59,0002.05
2022-10-25 01:32:00,,0821.5,5.00,0.00,24.5,22.7,00.0,33.5,26.1,07.7,0000.0,0005.23,0002.57,0002.07
2022-10-25 01:33:00,,0821.6,5.01,0.00,24.5,22.7,00.0,33.5,26.1,07.7,0000.0,0005.12,0002.54,0002.08
2022-10-25 01:34:00,,0821.6,5.01,0.00,24.5,22.7,00.0,33.5,26.2,07.7,0000.0,0004.99,0002.51,0002.10
2022-10-25 01:35:00,,0821.6,5.00,0.00,24.5,22.7,00.0,33.5,26.2,07.7,0000.0,0005.17,0002.53,0002.11
2022-10-25 01:36:00,,0821.5,4.99,0.00,24.4,22.7,00.0,33.4,26.2,07.7,0000.0,0005.22,0002.56,0002.12
2022-10-25 01:37:00,,0821.6,5.00,0.00,24.4,22.6,00.0,33.4,26.2,07.7,0000.0,0005.14,0002.56,0002.14
2022-10-25 01:38:00,,0821.5,5.00,0.00,24.4,22.6,00.0,33.4,26.2,07.7,0000.0,0004.05,0002.52,0002.14
2022-10-25 01:39:00,,0821.5,4.99,0.00,24.4,22.6,00.0,33.4,26.1,07.6,0000.0,0004.02,0002.54,0002.15
2022-10-25 01:40:00,,0821.5,5.00,0.00,24.4,22.6,00.0,33.4,26.0,07.6,0000.0,0004.09,0002.54,0002.15
2022-10-25 01:41:00,,0821.5,5.00,0.00,24.3,22.5,00.0,33.4,26.0,07.6,0000.0,0005.53,0002.59,0002.17
2022-10-25 01:42:00,,0821.5,5.00,0.00,24.3,22.5,00.0,33.4,26.1,07.6,0000.0,0005.87,0002.59,0002.18
2022-10-25 01:43:00,,0821.5,5.00,0.00,24.3,22.5,00.0,33.3,26.0,07.6,0000.0,0005.69,0002.59,0002.19
2022-10-25 01:44:00,,0821.5,5.01,0.00,24.3,22.5,00.0,33.3,25.9,07.6,0000.0,0005.59,0002.58,0002.20
2022-10-25 01:45:00,,0821.6,5.01,0.00,24.3,22.5,00.0,33.3,25.9,07.5,0000.0,0005.58,0002.58,0002.21
2022-10-25 01:46:00,,0821.6,5.00,0.00,24.3,22.5,00.0,33.3,26.0,07.6,0000.0,0005.72,0002.62,0002.24
2022-10-25 01:47:00,,0821.5,5.00,0.00,24.3,22.5,00.0,33.3,25.9,07.6,0000.0,0005.70,0002.62,0002.25
2022-10-25 01:48:00,,0821.6,5.00,0.00,24.2,22.4,00.0,33.2,25.9,07.6,0000.0,0005.64,0002.60,0002.25
2022-10-25 01:49:00,,0821.6,5.00,0.00,24.2,22.4,00.0,33.2,25.9,07.6,0000.0,0005.82,0002.65,0002.26
2022-10-25 01:50:00,,0821.6,5.00,0.00,24.2,22.4,00.0,33.2,25.9,07.6,0000.0,0005.78,0002.63,0002.26
2022-10-25 01:51:00,,0821.7,5.00,0.00,24.2,22.5,00.0,33.2,25.9,07.7,0000.0,0005.88,0002.65,0002.27
2022-10-25 01:52:00,,0821.6,4.98,0.00,24.2,22.5,00.0,33.2,26.0,07.7,0000.0,0004.83,0002.62,0002.26
2022-10-25 01:53:00,,0821.6,5.01,0.00,24.2,22.5,00.0,33.2,26.0,07.6,0000.0,0004.17,0002.59,0002.25
2022-10-25 01:54:00,,0821.6,5.00,0.00,24.2,22.5,00.0,33.2,26.1,07.6,0000.0,0004.35,0002.59,0002.23
2022-10-25 01:55:00,,0821.7,5.00,0.00,24.2,22.6,00.0,33.2,26.1,07.7,0000.0,0004.33,0002.58,0002.22
2022-10-25 01:56:00,,0821.7,5.00,0.00,24.2,22.6,00.0,33.2,26.1,07.7,0000.0,0004.32,0002.58,0002.21
2022-10-25 01:57:00,,0821.7,5.00,0.00,24.2,22.6,00.0,33.2,26.1,07.6,0000.0,0004.34,0002.57,0002.19
2022-10-25 01:58:00,,0821.7,5.00,0.00,24.2,22.6,00.0,33.2,26.1,07.6,0000.0,0005.53,0002.57,0002.17
2022-10-25 01:59:00,,0821.7,5.00,0.00,24.2,22.6,00.0,33.1,26.1,07.6,0000.0,0005.42,0002.54,0002.16
